Probability
0 0 1 2 3 4 6 7 6 3 2 3 5 5 4 3 2 2 2 1 0 0 0 0 0 0 0 0 0 0 0 0 0 0 0 0 0 0
1 1 2 2 3 4 6 7 7 6 4 4 6 6 4 3 3 4 4 2 1 0 0 0 0 0 0 0 0 0 0 0 0 0 0 0 0 0
3 5 5 5 4 4 5 7 9 8 7 6 6 6 5 4 4 5 5 4 3 1 0 0 0 0 0 0 0 0 0 0 0 0 0 0 0 0
7 8 8 8 8 5 5 7 9 9 8 7 6 6 5 4 4 4 4 4 3 1 0 0 0 0 0 0 0 0 0 0 0 0 0 0 0 0
8 9 9 10 9 6 5 7 9 10 9 9 7 6 4 3 3 3 3 4 3 1 0 0 0 0 0 0 0 0 0 0 0 0 0 0 0 0
7 7 8 8 7 4 4 6 8 10 10 9 8 6 5 4 4 4 4 4 4 3 1 1 0 0 0 0 0 0 0 0 0 0 0 0 0 0
5 5 5 4 2 1 1 4 7 9 10 10 9 7 6 5 5 4 4 4 4 3 3 3 2 1 1 1 0 0 0 0 0 0 0 0 0 0
5 5 3 2 1 1 1 2 5 8 9 9 8 7 6 5 4 4 3 3 3 3 4 5 4 3 2 1 0 0 0 0 0 0 0 0 0 0
6 5 4 3 2 3 3 4 5 7 7 7 6 5 5 4 4 3 3 3 3 3 4 5 5 3 2 1 0 0 0 0 0 0 0 0 0 0
5 5 4 3 3 4 5 5 6 7 6 4 4 3 3 3 3 2 3 3 2 2 2 3 2 1 1 0 0 0 0 0 0 0 0 0 0 0
4 3 3 2 3 4 5 4 4 5 5 4 3 2 1 1 1 1 2 2 2 1 1 1 1 0 0 0 0 0 0 0 0 0 0 0 0 0
5 4 2 1 1 2 3 2 2 3 4 5 4 3 2 1 1 1 2 3 3 3 2 1 0 0 0 0 0 0 0 0 0 0 0 0 0 0
4 4 2 0 0 1 1 1 1 2 3 4 4 4 4 3 3 2 3 4 5 5 4 2 0 0 0 0 0 0 0 0 0 0 0 0 0 0
2 3 2 1 0 0 0 0 0 1 1 3 4 4 5 5 4 4 4 5 5 4 3 1 0 0 0 0 0 0 0 0 0 0 0 0 0 0
1 2 2 1 0 0 0 0 0 0 1 2 3 3 4 4 5 5 4 4 4 2 1 0 0 0 0 0 0 0 0 0 0 0 0 0 0 0
0 1 1 0 0 0 0 0 0 0 0 1 2 3 3 3 4 4 4 3 3 2 1 0 0 0 0 0 0 0 0 0 0 0 0 0 0 0
0 1 1 0 0 0 0 0 0 0 0 0 1 2 3 2 3 4 4 3 3 3 2 1 0 0 0 0 0 0 0 0 0 0 0 0 0 0
1 2 2 1 1 1 1 1 0 0 0 0 0 1 2 3 3 4 4 4 4 3 3 2 1 0 0 0 0 0 0 0 0 0 0 0 0 0
1 2 3 3 3 3 2 2 1 0 0 0 0 1 2 3 3 3 3 4 5 4 3 3 2 0 0 0 0 0 0 0 0 0 0 0 0 0
0 1 2 3 3 3 3 3 2 1 0 0 0 0 1 2 2 3 3 3 5 5 3 2 1 0 0 0 0 0 0 0 0 0 0 0 0 0
0 0 1 1 3 3 3 3 2 1 0 0 0 0 0 1 1 2 3 3 4 5 3 1 0 0 0 0 0 0 0 0 0 0 0 0 0 0
0 0 0 1 3 4 3 3 2 1 0 0 0 0 0 0 0 0 1 2 3 5 4 2 1 0 0 0 0 0 0 0 0 0 0 0 0 0
0 0 0 1 3 4 4 3 2 1 0 0 0 0 0 0 0 0 0 1 3 5 5 3 1 0 0 0 0 0 0 0 0 0 0 0 0 0
Wind_Speed
2 3 2 2 2 2 2 2 3 2 3 3 2 2 2 2 2 2 2 2 3 3 3 3 4 4 4 3 3 3 3 3 3 3 3 3 4 5
1 2 2 2 2 2 2 2 2 3 3 2 3 2 2 2 1 2 2 2 3 3 3 3 3 3 4 4 3 3 3 3 3 4 4 4 4 4
1 2 3 2 2 2 2 2 2 3 3 3 2 2 2 2 1 1 1 1 2 2 3 2 2 3 4 4 4 3 3 3 4 4 4 4 5 5
2 2 3 2 2 2 2 3 3 3 3 3 2 1 2 2 1 1 1 1 2 2 3 3 2 2 2 3 4 3 3 3 4 3 4 4 4 4
2 2 3 2 3 2 2 3 3 3 2 2 2 1 1 1 1 1 1 1 2 2 3 3 2 2 2 2 3 3 3 3 4 4 3 4 4 4
2 2 3 3 3 3 3 3 2 2 2 2 2 1 1 1 1 1 1 1 2 2 2 2 2 2 3 3 3 3 3 3 3 3 3 3 3 3
2 3 3 3 3 3 3 2 2 2 2 2 2 1 2 1 2 2 2 2 2 1 2 1 1 1 2 3 3 3 3 3 2 3 3 3 3 3
3 3 3 3 3 3 3 3 3 3 3 3 2 3 4 3 2 2 2 1 2 1 1 2 1 2 2 2 2 3 3 3 3 3 3 3 3 3
3 2 2 2 2 2 3 3 3 3 5 4 4 5 4 4 4 4 3 3 3 1 1 2 1 2 2 2 3 3 3 3 3 3 2 3 4 4
3 2 2 2 2 2 2 2 3 3 4 4 4 5 5 4 5 4 4 2 1 1 2 2 1 2 2 2 2 3 3 3 3 2 2 2 3 4
2 2 2 2 3 2 1 2 3 3 3 4 4 4 4 4 4 3 2 2 2 2 2 2 1 1 2 2 1 2 3 3 3 3 2 2 2 3
2 2 2 2 3 2 1 2 3 4 3 3 2 2 2 3 5 5 4 3 2 2 2 2 1 1 1 1 1 1 1 2 3 3 2 2 2 2
2 2 2 3 4 3 2 3 4 4 3 2 2 1 1 1 2 2 3 3 3 2 2 2 1 1 1 1 1 1 1 1 1 2 2 3 3 3
2 2 2 4 3 2 2 3 4 2 1 1 1 1 1 1 1 2 2 2 2 2 2 3 2 2 2 2 2 1 1 2 2 2 2 2 2 3
2 3 4 4 2 2 2 2 1 1 1 1 2 2 2 1 1 1 1 1 1 1 1 2 2 2 3 3 2 2 2 2 2 2 2 2 2 2
1 2 2 1 1 1 2 1 1 1 1 2 2 2 1 1 1 1 1 1 0 1 1 1 2 3 2 2 2 2 2 2 2 2 2 2 2 2
1 0 1 1 1 1 2 1 1 1 1 1 1 1 1 1 1 1 1 1 2 2 1 1 1 1 2 2 2 3 2 2 2 2 2 2 2 3
2 1 1 1 1 1 2 2 2 2 2 2 2 2 2 2 1 1 1 2 2 2 2 1 1 0 1 1 2 3 2 2 2 2 2 2 3 2
2 2 2 2 2 2 2 2 2 2 2 2 2 2 2 2 2 2 2 2 2 2 2 2 2 2 3 3 2 2 2 2 1 1 2 2 3 3
1 2 2 2 2 2 2 2 2 2 2 2 2 2 2 2 2 2 2 2 2 2 2 1 2 3 4 4 2 2 3 3 2 2 2 2 2 2
2 2 2 2 2 2 3 2 2 2 2 2 2 2 2 2 2 3 3 3 3 2 3 3 2 3 1 1 2 2 2 3 3 3 2 2 2 1
2 3 3 3 3 2 2 2 2 2 2 3 3 3 2 2 3 3 3 3 3 3 3 2 1 1 2 3 3 3 2 1 2 2 3 3 2 2
3 3 3 3 3 3 2 3 3 3 2 2 2 2 2 2 2 3 3 3 2 2 2 2 1 1 1 2 2 2 2 2 1 1 1 2 4 5
Wind_Direction
230 218 220 229 209 209 197 190 191 239 263 261 261 256 247 239 247 230 235 241 236 237 247 248 247 242 234 233 231 225 225 233 228 226 230 231 237 240
240 229 235 237 221 209 205 204 200 208 246 248 245 263 259 264 248 243 252 257 256 253 249 247 248 234 232 230 233 229 225 225 223 220 220 225 229 235
277 250 254 243 231 227 213 208 211 204 235 262 251 262 238 261 277 257 255 255 262 256 254 251 253 240 233 227 225 228 225 222 223 221 221 227 227 229
268 268 274 264 252 248 228 223 220 213 218 250 263 267 253 255 259 256 274 269 261 261 253 253 245 236 235 227 220 221 219 222 222 221 220 223 229 227
256 259 268 259 260 256 245 241 232 221 214 229 258 257 261 264 269 284 289 296 281 271 253 250 254 249 248 241 223 217 219 222 225 222 224 225 225 226
261 258 262 252 250 252 249 243 231 217 205 217 243 256 255 254 228 261 287 292 283 298 304 286 271 254 252 246 233 220 219 225 225 220 215 219 210 206
276 273 272 268 257 249 252 241 226 217 212 216 235 242 243 228 230 225 248 271 269 274 285 290 283 273 273 261 242 232 224 225 232 225 209 202 199 202
270 283 286 282 289 277 266 243 218 212 218 221 232 234 238 231 225 219 218 242 262 242 247 274 260 264 266 258 246 225 221 223 223 227 211 197 195 198
257 271 293 303 295 291 285 271 252 234 221 217 226 240 237 223 210 216 215 221 238 249 237 264 265 263 269 263 240 232 227 223 217 217 220 212 200 197
252 249 258 283 287 282 278 286 274 256 240 232 231 239 241 225 211 214 216 227 262 242 210 242 253 262 278 269 242 232 228 226 223 221 213 214 204 191
268 266 263 273 283 285 266 284 296 293 275 249 240 252 248 228 199 176 180 199 245 238 201 222 246 272 275 269 264 236 231 225 228 229 222 217 209 195
278 273 262 281 293 273 251 261 282 293 301 302 288 284 257 223 197 197 193 197 219 236 195 203 209 223 275 272 274 273 250 235 227 228 231 221 213 202
272 281 291 295 283 267 252 245 259 276 291 289 286 277 253 206 194 196 197 200 207 230 198 190 203 211 237 274 285 268 257 263 254 246 237 232 216 200
258 283 289 293 280 269 269 276 264 265 263 272 267 269 262 244 231 211 195 202 219 237 216 196 205 205 213 244 266 275 262 256 250 248 253 247 226 209
257 279 289 297 295 286 299 307 271 251 262 268 270 277 277 258 243 224 212 185 200 224 194 202 207 203 211 229 244 251 263 257 237 241 244 239 231 216
273 291 296 286 313 325 328 326 306 284 261 270 283 284 284 252 227 228 223 196 222 302 254 226 222 198 208 221 224 249 252 252 254 249 248 245 233 222
208 341 8 7 7 353 334 320 311 305 282 281 279 286 283 271 268 243 225 209 213 238 267 264 240 219 225 215 228 245 249 257 260 244 230 245 247 234
153 194 236 256 268 279 285 295 296 288 285 280 275 280 276 270 269 254 229 222 233 239 241 233 192 192 224 252 230 241 246 251 258 243 224 231 250 243
168 206 224 240 254 259 264 269 280 284 280 275 278 276 273 264 257 254 242 239 246 254 254 225 203 201 229 259 264 215 233 251 235 234 232 237 247 253
212 231 241 246 253 255 257 261 274 282 273 270 272 274 268 262 257 252 244 244 252 259 262 247 222 215 222 245 257 263 230 227 224 233 238 247 261 269
235 245 250 252 256 255 253 253 254 263 272 270 269 271 266 265 262 250 242 238 237 244 249 252 248 231 215 196 236 266 266 236 229 228 217 224 245 248
238 243 249 250 254 254 257 257 255 256 265 267 267 265 263 257 263 259 249 242 237 240 249 258 253 190 193 214 237 258 277 288 251 233 232 226 230 233
239 244 248 250 251 251 249 249 249 254 256 260 266 269 268 263 262 260 255 249 245 248 253 260 258 233 225 219 231 245 263 279 278 266 274 283 253 260